{"data":{"norad_id":52839,"epoch":"2026-09-19T11:28:08.621184Z","epoch_age_seconds":154655,"freshness":"FRESH","line1":"1 52839U 22062K   26262.47787756  .00000858  00000+0  39402-4 0  9990","line2":"2 52839  53.1597 233.5656 0001262  73.8006 286.3135 15.31702764235187","mean_motion":15.31702764,"eccentricity":0.0001262,"inclination_deg":53.1597,"raan_deg":233.5656,"arg_perigee_deg":73.8006,"mean_anomaly_deg":286.3135,"bstar":3.9402e-5,"rev_number":23518,"period_min":94.013018311691,"perigee_km":469.86742866087,"apogee_km":471.59608313486,"semimajor_km":6848.8687558979,"source":"CELESTRAK","updated_at":"2026-09-20T09:00:40.112344Z"}}